This is the latest recevied weather packets stored in our database for station/object WX1NWA. If no packets are shown the sender has not sent any weather packets the latest 10 day(s).
| Time | Temp. | Humidity | Pressure | Rain* | Wind** | Luminosity | Snow |
|---|---|---|---|---|---|---|---|
| 1777905883 | 19.44° C | 60% | 1014.6 hPa | 0 mm | - | 632 W/m² | - |
| 1777905580 | 19.44° C | 60% | 1014.9 hPa | 0 mm | - | 605 W/m² | - |
| 1777905277 | 18.89° C | 60% | 1014.8 hPa | 0 mm | - | 576 W/m² | - |
| 1777904975 | 18.33° C | 61% | 1014.7 hPa | 0 mm | - | 568 W/m² | - |
| 1777904672 | 18.89° C | 61% | 1014.9 hPa | 0 mm | - | 511 W/m² | - |
| 1777904368 | 18.33° C | 60% | 1014.9 hPa | 0 mm | - | 503 W/m² | - |
| 1777904065 | 18.33° C | 60% | 1015 hPa | 0 mm | - | 399 W/m² | - |
| 1777903761 | 18.33° C | 61% | 1014.9 hPa | 0 mm | - | 416 W/m² | - |
| 1777903458 | 18.33° C | 61% | 1015.1 hPa | 0 mm | - | 407 W/m² | - |
| 1777903154 | 18.33° C | 63% | 1014.9 hPa | 0 mm | - | 367 W/m² | - |
| 1777902850 | 17.78° C | 61% | 1014.9 hPa | 0 mm | - | 329 W/m² | - |
| 1777902549 | 17.78° C | 61% | 1015 hPa | 0 mm | - | 193 W/m² | - |
| 1777902245 | 17.78° C | 63% | 1015 hPa | 0 mm | - | 304 W/m² | - |
| 1777901943 | 17.78° C | 62% | 1015 hPa | 0 mm | - | 231 W/m² | - |
| 1777901641 | 17.22° C | 65% | 1015 hPa | 0 mm | - | 262 W/m² | - |
| 1777901337 | 17.22° C | 63% | 1015 hPa | 0 mm | - | 202 W/m² | - |
| 1777901035 | 17.22° C | 63% | 1015 hPa | 0 mm | - | 226 W/m² | - |
| 1777900733 | 17.22° C | 63% | 1014.9 hPa | 0 mm | - | 177 W/m² | - |
| 1777900430 | 16.67° C | 63% | 1014.7 hPa | 0 mm | - | 255 W/m² | - |
| 1777900127 | 16.67° C | 64% | 1014.9 hPa | 0 mm | - | 158 W/m² | - |
| 1777899824 | 16.67° C | 64% | 1014.7 hPa | 0 mm | - | 175 W/m² | - |
| 1777899520 | 17.22° C | 61% | 1014.6 hPa | 0 mm | - | 164 W/m² | - |
| 1777899218 | 16.67° C | 62% | 1014.6 hPa | 0 mm | - | 193 W/m² | - |
| 1777898915 | 16.67° C | 63% | 1014.8 hPa | 0 mm | - | 183 W/m² | - |
| 1777898612 | 16.67° C | 63% | 1014.7 hPa | 0 mm | - | 107 W/m² | - |
* Rain latest hour (hover to see other rain measurements)
** Current wind speed in m/s (hover to see current wind gust speed)